Location:  
MeteoStar


Sort by weather type Sort by elevation Sort by visibility Sort from west to east north Sort from north to south Alphabetically Sort from strongest wind speed Sort from lowest to highest pressure Sort from highest to lowest dew point temperature Sort coolest temperatures to warmest Sort warm temperatures to coolest
 Metric

Current Observations for United Kingdom sorted from warmest to coolest

Baltasound08:00ZNot Avail.44 40151026.1W 12 3849
Benbecula08:20ZDrizzle43 39301031.1S 9 3819
Sumburgh Cape 08:20ZMostly Cloudy43 39301028.1W 19 3516
Lydd Airport 08:20ZMostly Cloudy43 32171034.1ENE 12 379
Scilly; Saint MaryS08:00ZNot Avail.43 33251032.9ENE 10 37101
South Uist Range08:00ZHaze42 4031031S 14 3532
Fair Isle08:00ZNot Avail.42 36141029.0WSW 16 34187
Tiree08:00ZNot Avail.42 3771032.9S 12 3539
Stornoway08:00ZNot Avail.42 38101031SSW 14 3529
Lerwick08:00ZCloudy41 40111027.4WNW 13 34269
Manston08:00ZNot Avail.41 32251034.5E 6 37180
Isle Of Man / Ronaldsway Airport08:00ZCloudy41 29201035.1SSW 6 3755
Liverpool Airport 08:20ZCloudy41 30201036.2N 3 4185
Langdon Bay08:00ZNot Avail.40 29251034.4ENE 12 33383
Aultbea08:00ZClear40 34251031.9SSE 10 3436
Aberdaron08:00ZNot Avail.39 28351036.5SSE 9 33311
Yorkshire and Humberside; Sheffield City08:20ZPartly Cloudy39 30351035.3E 7 34229
Norwich Weather Centre08:20ZLight Showers39 34351036.2N 1 3945
Walney Island08:00ZNot Avail.39 28201035.5S 5 3549
Guernsey Airport08:00ZPartly Cloudy39 26251032.4ENE 11 32334
Isle Of Portland08:00ZNot Avail.38 32251034.0ENE 14 30173
Shoeburyness08:00ZNot Avail.38 36201035.0NNE 7 336
Weybourne08:00ZNot Avail.38 33301035.6SSW 4 3568
Donna Nook08:00ZNot Avail.38 3691035.8WNW 5 3426
Bridlington Mrsc08:00ZNot Avail.38 32451035.5NW 4 3549
Marham08:00ZNot Avail.38 29351035.9E 5 3475
Waddington08:00ZNot Avail.38 31181036.1NNW 3 38223
Coningsby Royal Air Force Base08:00ZCloudy38 33201036N 3 3822
West Freugh08:00ZNot Avail.38 32201035.1WNW 4 3536
Jersey Airport08:00ZNot Avail.38 28171032.0E 8 32275
Portglenone08:00ZNot Avail.37 29201034.0S 6 32209
Camborne08:00ZCloudy37 27201034.0ENE 7 32285
Mumbles08:00ZNot Avail.37 29301036NE 11 29114
Milford Haven08:00ZNot Avail.37 28301035.1ENE 4 34144
Nottingham Weather Centre08:00ZNot Avail.37 27251036.3NNE 2 37383
Saint Bees Head08:00ZNot Avail.37 28131035.5S 7 32406
Prestwick Rnas08:00ZNot Avail.37 30301034.6SSE 3 3785
Wainfleet08:00ZNot Avail.37 35451035.9NW 2 379
Holbeach08:00ZNot Avail.37 35201035.8N 4 349
Cranwell08:00ZNot Avail.37 33131036.4N 5 33219
Wittering08:00ZNot Avail.37 33251035.5WNW 2 37275
Northolt08:00ZCloudy37 32201035.4NE 5 33124
Machrihanish08:00ZNot Avail.37 28131034.5ESE 2 3742
Prestwick Airport08:20ZCloudy37 30301034.2S 3 3765
Kirkwall Airport08:00ZNot Avail.37 33301030.5WSW 9 3068
Pembrey Sands08:00ZNot Avail.37 27351035.4ENE 5 339
Humberside08:20ZMostly Cloudy37 36171036.2CALM37101
Blackpool Airport08:00ZNot Avail.37 3117S 3 3732
Southend-On-Sea 08:20ZMostly Cloudy37 34171035.2NNE 4 3449
London / Heathrow Airport08:00ZNot Avail.37 32171035.4NE 4 3478
London City Airport08:20ZCloudy37 32171035.1NE 5 3316
Cardiff-Wales Airport08:20ZPartly Cloudy37 30201035.3ENE 6 32219
Culdrose08:00ZNot Avail.37 30131033.5NE 11 29255
Manchester Airport08:20ZCloudy37 27201036.3N 2 37226
Belfast / Harbour08:20ZCloudy37 28201035.1CALM3716
Belfast / Aldergrove Airport08:00ZNot Avail.37 28201034.8SSE 4 34265
Castlederg08:00ZNot Avail.36 29151033.6WNW 2 36167
Crosby08:00ZNot Avail.36 3171036.0SSE 1 3626
Linton-On-Ouse08:00ZNot Avail.36 34201036.0WNW 1 3652
Leeming08:00ZNot Avail.36 33151036S 1 36131
Stansted Airport08:20ZCloudy36 30351035.5N 3 36347
Glasgow Airport08:20ZCloudy36 30301035.1NE 2 3626
Inverness / Dalcross08:20ZMostly Cloudy36 30301032.1SW 5 3229
East Midlands08:20ZMostly Cloudy36 28201035.4N 2 36308
Luton Airport 08:20ZMostly Cloudy36 32201035.6NNE 4 33524
Plymouth08:00ZNot Avail.36 28201034.0NE 7 30164
Ballypatrick Forest08:00ZNot Avail.35 27201034.5WSW 7 29511
Saint Catherines Point08:00ZNot Avail.35 31251034NNE 10 2752
Bingley08:00ZNot Avail.35 24101036.3S 3 35859
Loftus Samos08:00ZNot Avail.35 29451035.8SW 3 35190
Strathallan08:00ZNot Avail.35 29301034.5W 5 31114
Middle Wallop08:00ZNot Avail.35 29251035.0NE 5 31298
Wattisham08:00ZNot Avail.35 29131035.5NE 6 30285
Aberporth08:00ZNot Avail.35 25251035.9SSE 4 32436
Kinloss08:00ZNot Avail.35 28351032.5SW 3 3522
Wick08:00ZNot Avail.35 28301031.3N Gusting to 0 35127
Boscombe Down08:00ZNot Avail.35 29301035.0ENE 4 32406
Thorney Island08:00ZNot Avail.34 30251034.4NNE 9 2713
Kenley08:00ZNot Avail.34 32251035.1ENE 3 34557
High Wicombe Hqstc08:00ZNot Avail.34 28251035.5E 2 34669
Bedford08:00ZNot Avail.34 32201035.9N 4 30278
Fylingdales08:00ZNot Avail.34 2545N Gusting to 4 34859
Drumalbin08:00ZNot Avail.34 27251034.9SW 8 27803
Dundrennan08:00ZNot Avail.34 32301034.9E 6 29374
Boulmer08:00ZNot Avail.34 27251035.5N Gusting to 0 3475
Valley08:00ZNot Avail.34 2881035.9ESE 5 293
Newcastle 08:20ZPartly Cloudy34 28201035.4WSW 2 34265
London / Gatwick Airport08:20ZMostly Cloudy34 32171034.3N 1 34203
Biggin Hill 08:20ZMostly Cloudy34 32171034.7NE 3 34600
Glenanne08:00ZNot Avail.33 28151034.5CALM33528
Lough Fea08:00ZNot Avail.33 27131034.8SE 4 29738
Herstmonceux08:00ZNot Avail.33 29201034.3NE 2 33170
Cardinham08:00ZNot Avail.33 26251034.1N 33656
Larkhill08:00ZNot Avail.33 29351035.1NE 5 28433
Charterhall08:00ZNot Avail.33 27451034.9SW 5 28367
Odiham08:00ZNot Avail.33 30121035.3N 1 33403
Mildenhall Royal Air Force Base07:56ZCloudy33 33251035.5CALM3332
Lakenheath Royal Air Force Base07:56ZCloudy33 33251035.5N 3 3332
Leuchars08:00ZNot Avail.33 28201034.1WNW 2 3339
Tain Range08:00ZNot Avail.33 28251032.4N Gusting to 7 3313
Shawbury08:00ZNot Avail.33 29181036.3SSE 2 33249
Hawarden08:00ZNot Avail.33 3181036.4S 2 3332
Farnborough08:00ZNot Avail.33 31161035.1WSW 1 33213
Shoreham Airport08:00ZNot Avail.33 32171034.5N 7 276
Bournemouth Airport08:00ZNot Avail.33 30151034.6NE 5 2836
Church Lawford08:00ZNot Avail.32 31121036.0NW 1 32351
Rhyl08:00ZNot Avail.32 26101036.3SSW 5 27252
Carlisle08:00ZNot Avail.32 29151035.8N 3291
Fairford Royal Air Force Base07:56ZPartly Cloudy32 32131035.6CALM32285
Benson08:00ZNot Avail.32 3181035.5N 3 32206
Bristol / Lulsgate 08:20ZMostly Cloudy32 30201034.7NE 5 27620
Yeovilton08:00ZNot Avail.32 28201035NNE 2 3275
Birmingham / Airport08:20ZMostly Cloudy32 30201035.4CALM32324
Dunkeswell Aerodrome08:00ZNot Avail.31 27201035.0NNE 5 26826
Liscombe08:00ZNot Avail.31 24301035.1E 7 241141
Little Rissington08:00ZNot Avail.31 31131035.8NNE 7 24705
Shobdon08:00ZNot Avail.31 29251036.1SE 2 31324
Lake Vyrnwy08:00ZNot Avail.31 26141036.1NE 1 311181
Redesdale08:00ZNot Avail.31 28451035.9NW 2 31692
Keswick08:00ZNot Avail.31 28131035.9SE 2 31265
Loch Glascanoch08:00ZNot Avail.31 29301033CALM31869
Brize Norton08:00ZPartly Cloudy31 3091036NNE 2 31288
Lossiemouth08:00ZCloudy31 28351032.5SW 4 2742
Lyneham08:00ZNot Avail.31 31201035.8NNE 6 25475
Sennybridge08:00ZNot Avail.30 26451036.3NNE 3 301007
Spadeadam08:00ZNot Avail.30 27251035.8WNW 2 30935
Tulloch Bridge08:00ZNot Avail.30 27301034.9N 2 30777
Trawscoed08:00ZNot Avail.29 28201036.1E 1 29206
Shap08:00ZNot Avail.29 2851036.3WSW 3 29816
Eskdalemuir08:00ZNot Avail.29 28301036SE 1 29793
Glen Ogle08:00ZNot Avail.29 2630WSW 5 241850
Altnaharra08:00ZNot Avail.29 27301032.3NNW 3 29265
Staverton Private 08:20ZClear28 28201035.2CALM2895
Capel Curig08:00ZNot Avail.27 2591037.1CALM27708
Inverbervie08:00ZNot Avail.27 24251033.9NW 6 20439
Aviemore08:00ZNot Avail.27 24401033.9S 2 27721
Pershore08:00ZNot Avail.25 24111036.6CALM25104
Aberdeen / Dyce08:00ZNot Avail.25 22301033.5NNW 1 25213
Great Dun Fell08:00ZNot Avail.24 225N Gusting to 0 242778
Aboyne08:00ZNot Avail.24 22351034.0NW 2 24459
Cairnwell08:00ZNot Avail.24 2440WNW 13 123061